TimeCDT,TemperatureF,Dew PointF,Humidity,Sea Level PressureIn,VisibilityMPH,Wind Direction,Wind SpeedMPH,Gust SpeedMPH,PrecipitationIn,Events,Conditions,WindDirDegrees,DateUTC
12:53 AM,73.0,68.0,84,29.85,10.0,South,12.7,20.7,N/A,,Clear,190,2013-10-04 05:53:00
1:53 AM,72.0,66.9,84,29.86,10.0,South,10.4,-,N/A,,Clear,180,2013-10-04 06:53:00
2:53 AM,71.1,66.9,87,29.86,10.0,South,10.4,-,N/A,,Clear,180,2013-10-04 07:53:00
3:53 AM,70.0,66.9,90,29.86,10.0,South,9.2,-,N/A,,Clear,170,2013-10-04 08:53:00
4:53 AM,69.1,66.9,93,29.86,10.0,SSE,6.9,-,N/A,,Clear,150,2013-10-04 09:53:00
5:53 AM,66.9,66.0,97,29.87,8.0,ESE,4.6,-,N/A,,Clear,120,2013-10-04 10:53:00
6:53 AM,66.9,66.0,97,29.88,6.0,ESE,6.9,-,N/A,,Clear,120,2013-10-04 11:53:00
7:53 AM,68.0,66.9,96,29.89,5.0,SE,4.6,-,N/A,,Clear,140,2013-10-04 12:53:00
8:53 AM,72.0,69.1,91,29.89,10.0,SSE,11.5,-,N/A,,Clear,160,2013-10-04 13:53:00
9:53 AM,77.0,69.1,76,29.89,10.0,South,18.4,24.2,N/A,,Clear,180,2013-10-04 14:53:00
10:53 AM,80.1,70.0,71,29.87,10.0,South,16.1,21.9,N/A,,Partly Cloudy,180,2013-10-04 15:53:00
11:53 AM,82.9,70.0,65,29.87,10.0,SSW,12.7,23.0,N/A,,Clear,200,2013-10-04 16:53:00
12:53 PM,84.9,71.1,63,29.86,10.0,South,16.1,-,N/A,,Clear,190,2013-10-04 17:53:00
1:53 PM,84.0,69.1,61,29.84,10.0,South,17.3,23.0,N/A,,Scattered Clouds,180,2013-10-04 18:53:00
2:53 PM,87.1,70.0,57,29.83,10.0,South,18.4,25.3,N/A,,Partly Cloudy,180,2013-10-04 19:53:00
3:53 PM,87.1,69.1,55,29.82,10.0,South,17.3,-,N/A,,Clear,170,2013-10-04 20:53:00
4:53 PM,84.9,68.0,57,29.82,10.0,South,15.0,26.5,N/A,,Clear,170,2013-10-04 21:53:00
5:53 PM,82.9,68.0,60,29.82,10.0,South,13.8,-,N/A,,Clear,170,2013-10-04 22:53:00
6:53 PM,81.0,68.0,65,29.83,10.0,SSE,10.4,-,N/A,,Clear,160,2013-10-04 23:53:00
7:53 PM,78.1,68.0,71,29.86,10.0,SSE,6.9,-,N/A,,Clear,150,2013-10-05 00:53:00
8:53 PM,77.0,68.0,74,29.86,10.0,SSE,10.4,-,N/A,,Clear,150,2013-10-05 01:53:00
9:53 PM,75.9,68.0,76,29.86,10.0,SSE,11.5,-,N/A,,Clear,160,2013-10-05 02:53:00
10:53 PM,73.0,66.9,81,29.88,10.0,South,6.9,-,N/A,,Clear,170,2013-10-05 03:53:00
11:53 PM,73.0,66.0,79,29.89,10.0,South,8.1,-,N/A,,Clear,180,2013-10-05 04:53:00